Location: Trebic
(49.2170°N, 15.8830°E)
Time: 09:17:28
(UTC+02:00)

Transit 4A - Pass Details

Date: 26 July 2019
Orbit: 864 x 981 km, 66.8° (Epoch: 25 August)

Event Time Altitude Azimuth Distance (km) Brightness Sun altitude
Exits shadow 03:57:35 - 267° (W) 3,512 10.5 -11.1°
Reaches altitude 10° 04:00:11 10° 279° (W) 2,736 10.0 -10.8°
Maximum altitude 04:05:17 24° 333° (NNW) 1,901 9.8 -10.3°
Drops below altitude 10° 04:10:24 10° 26° (NNE) 2,731 11.7 -9.7°
Sets 04:13:31 0° 40° (NE) 3,669 13.3 -9.3°
